This is the latest recevied weather packets stored in our database for station/object KD2SIG. If no packets are shown the sender has not sent any weather packets the latest 1 day(s).
| Time | Temp. | Humidity | Pressure | Rain* | Wind** | Luminosity | Snow |
|---|---|---|---|---|---|---|---|
| 1778025552 | 8.89° C | 90% | 1009.9 hPa | 3.05 mm | 0.89 m/s, 265° | 0 W/m² | - |
| 1778025250 | 9.44° C | 90% | 1009.9 hPa | 3.05 mm | 0.89 m/s, 263° | 0 W/m² | - |
| 1778024946 | 9.44° C | 89% | 1009.6 hPa | 3.05 mm | 1.34 m/s, 254° | 0 W/m² | - |
| 1778024644 | 10° C | 88% | 1009.5 hPa | 3.05 mm | 0.89 m/s, 297° | 1 W/m² | - |
| 1778024341 | 10° C | 87% | 1009.6 hPa | 3.05 mm | 0.45 m/s, 264° | 1 W/m² | - |
| 1778024038 | 10° C | 86% | 1009.3 hPa | 3.05 mm | 1.79 m/s, 277° | 0 W/m² | - |
| 1778023735 | 10.56° C | 84% | 1009.1 hPa | 1.27 mm | 1.34 m/s, 300° | 2 W/m² | - |
| 1778023433 | 11.67° C | 82% | 1009.1 hPa | 3.56 mm | 3.13 m/s, 256° | 2 W/m² | - |
| 1778023130 | 12.78° C | 80% | 1009 hPa | 1.78 mm | 1.34 m/s, 281° | 2 W/m² | - |
| 1778022827 | 13.33° C | 77% | 1008.7 hPa | 0 mm | 2.24 m/s, 270° | 0 W/m² | - |
| 1778022526 | 13.33° C | 76% | 1008.2 hPa | 0 mm | 1.34 m/s, 291° | 1 W/m² | - |
| 1778022222 | 13.89° C | 77% | 1007.8 hPa | 0 mm | 1.34 m/s, 262° | 3 W/m² | - |
| 1778021919 | 13.89° C | 76% | 1007.7 hPa | 0 mm | 0.89 m/s, 274° | 4 W/m² | - |
| 1778021616 | 13.89° C | 76% | 1007.7 hPa | 0 mm | 0.89 m/s, 261° | 6 W/m² | - |
| 1778021311 | 13.89° C | 77% | 1007.4 hPa | 0 mm | 0.45 m/s, 261° | 6 W/m² | - |
| 1778021010 | 13.89° C | 77% | 1007.4 hPa | 0 mm | 0.89 m/s, 258° | 6 W/m² | - |
| 1778020706 | 13.89° C | 77% | 1007.4 hPa | 0 mm | 1.79 m/s, 258° | 7 W/m² | - |
| 1778020403 | 13.89° C | 77% | 1007.1 hPa | 0 mm | 0.89 m/s, 269° | 8 W/m² | - |
| 1778020099 | 14.44° C | 78% | 1007.2 hPa | 0 mm | 0.89 m/s, 300° | 13 W/m² | - |
| 1778019795 | 14.44° C | 77% | 1007.3 hPa | 0 mm | 0.89 m/s, 262° | 7 W/m² | - |
| 1778019493 | 14.44° C | 77% | 1007.1 hPa | 0 mm | 1.79 m/s, 280° | 9 W/m² | - |
| 1778019189 | 14.44° C | 77% | 1006.9 hPa | 0 mm | 0.89 m/s, 259° | 13 W/m² | - |
| 1778018886 | 15° C | 76% | 1006.7 hPa | 0 mm | 2.24 m/s, 248° | 13 W/m² | - |
| 1778018583 | 15° C | 75% | 1006.7 hPa | 0 mm | 1.79 m/s, 267° | 19 W/m² | - |
| 1778018281 | 15.56° C | 74% | 1006.3 hPa | 0 mm | 1.79 m/s, 266° | 19 W/m² | - |
* Rain latest hour (hover to see other rain measurements)
** Current wind speed in m/s (hover to see current wind gust speed)